This is the latest recevied weather packets stored in our database for station/object EB1HRW. If no packets are shown the sender has not sent any weather packets the latest 10 day(s).
| Time | Temp. | Humidity | Pressure | Rain* | Wind** | Luminosity | Snow |
|---|---|---|---|---|---|---|---|
| 1777455045 | 13.33° C | 77% | 1006.3 hPa | 0 mm | - | - | - |
| 1777453247 | 13.33° C | 76% | 1006 hPa | 0.25 mm | - | - | - |
| 1777452352 | 13.33° C | 76% | 1006.1 hPa | 0.25 mm | - | - | - |
| 1777451446 | 13.33° C | 76% | 1006 hPa | 0.25 mm | - | - | - |
| 1777450545 | 13.89° C | 76% | 1005.8 hPa | 0 mm | - | - | - |
| 1777449647 | 13.89° C | 76% | 1005.8 hPa | 0 mm | - | - | - |
| 1777448747 | 13.89° C | 76% | 1005.9 hPa | 0 mm | - | - | - |
| 1777447845 | 13.33° C | 77% | 1006 hPa | 0 mm | - | - | - |
| 1777446947 | 13.33° C | 77% | 1005.9 hPa | 0 mm | - | - | - |
| 1777446046 | 13.33° C | 77% | 1005.8 hPa | 0 mm | - | - | - |
| 1777445146 | 13.33° C | 77% | 1005.6 hPa | 0 mm | - | - | - |
| 1777444244 | 13.33° C | 77% | 1005.5 hPa | 0 mm | - | - | - |
| 1777438844 | 12.22° C | 76% | 1005.5 hPa | 0.51 mm | - | - | - |
| 1777437943 | 12.78° C | 76% | 1005.6 hPa | 0.25 mm | - | - | - |
| 1777436144 | 13.33° C | 76% | 1005.7 hPa | 0 mm | - | - | - |
| 1777435244 | 13.33° C | 76% | 1005.7 hPa | 0 mm | - | - | - |
| 1777434343 | 13.33° C | 76% | 1005.7 hPa | 0 mm | - | - | - |
| 1777433442 | 12.78° C | 76% | 1005.7 hPa | 0 mm | - | - | - |
| 1777432542 | 12.78° C | 76% | 1005.7 hPa | 0 mm | - | - | - |
| 1777431644 | 12.78° C | 76% | 1005.7 hPa | 0 mm | - | - | - |
| 1777430743 | 13.33° C | 76% | 1005.7 hPa | 0 mm | - | - | - |
| 1777429843 | 12.78° C | 76% | 1005.9 hPa | 0 mm | - | - | - |
| 1777429107 | 13.33° C | 76% | 1006 hPa | 0 mm | - | - | - |
| 1777428943 | 13.33° C | 76% | 1006 hPa | 0 mm | - | - | - |
| 1777428044 | 13.33° C | 76% | 1006 hPa | 0 mm | - | - | - |
* Rain latest hour (hover to see other rain measurements)
** Current wind speed in m/s (hover to see current wind gust speed)